Location: Clermont
(50.2608°N, 4.3172°E)
Time: 09:14:11
(UTC+00:00)

Cosmos 44 Rocket - Pass Details

Date: 13 August 2020
Orbit: 647 x 743 km, 65.1° (Epoch: 20 September)

Event Time Altitude Azimuth Distance (km) Brightness Sun altitude
Rises 22:53:38 0° 318° (NW) 3,091 7.6 -24.4°
Reaches altitude 10° 22:55:58 10° 316° (NW) 2,185 6.6 -24.5°
Maximum altitude 23:00:54 66° 235° (SW) 789 3.4 -24.6°
Enters shadow 23:00:57 66° 232° (SW) 789 3.3 -24.6°
